Weather History for Cincinnati, OH

Change the Weather History Date:

Monday, October 28, 2013

  Actual Average Record
Temperature  
Mean Temperature 46 °F -  
Max Temperature 64 °F 62 °F 80 °F (1971)
Min Temperature 30 °F 41 °F 20 °F (1976)
Degree Days  
Heating Degree Days 19    
Moisture  
Dew Point 34 °F    
Average Humidity 88    
Maximum Humidity 100    
Minimum Humidity 35    
Precipitation  
Precipitation 0.00 in - - ()
Sea Level Pressure  
Sea Level Pressure 30.21 in    
Wind  
Wind Speed 1 mph (NE)    
Max Wind Speed 5 mph    
Max Gust Speed -    
Visibility 5 miles    
Events Fog    
Averages and records for this station are not official NWS values.
T = Trace of Precipitation, MM = Missing Value Source: NWS Daily Summary

Daily Weather History Graph

Daily Weather History Graph

Search for Another Location

Airport:

Trip Planner

Search our weather history database for the weather conditions in past years. The results will help you decide how hot, cold, wet, or windy it might be!

Date:

Astronomy

Oct. 28, 2013 Rise Set
Actual Time 8:01 AM EDT 6:41 PM EDT
Civil Twilight 7:33 AM EDT 7:08 PM EDT
Nautical Twilight 7:02 AM EDT 7:40 PM EDT
Astronomical Twilight 6:31 AM EDT 8:11 PM EDT
Moon 1:55 AM EDT (10/28) 3:20 PM EDT (10/28)
Length of Visible Light 11h 35m
Length of Day
10h 40m
Waning Crescent, 34% of the Moon is Illuminated
Oct 28
Waning Crescent
Nov 3
New
Nov 10
First Quarter
Nov 17
Full
Nov 25
Last Quarter

Hourly Weather History & Observations

Time (EDT) Temp. Windchill Dew Point Humidity Pressure Visibility Wind Dir Wind Speed Gust Speed Precip Events Conditions
12:53 AM 34.0 °F - 34.0 °F 100% 30.13 in 6.0 mi Calm Calm - N/A   Clear
1:53 AM 34.0 °F - 33.1 °F 96% 30.13 in 5.0 mi Calm Calm - N/A   Partly Cloudy
2:53 AM 33.1 °F 30.0 °F 32.0 °F 96% 30.14 in 5.0 mi NE 3.5 mph - N/A   Partly Cloudy
3:09 AM 33.8 °F 30.8 °F 32.0 °F 93% 30.14 in 5.0 mi NE 3.5 mph - N/A   Scattered Clouds
3:18 AM 33.8 °F - 32.0 °F 93% 30.15 in 4.0 mi Calm Calm - N/A   Mostly Cloudy
3:53 AM 34.0 °F - 33.1 °F 96% 30.16 in 6.0 mi Calm Calm - N/A   Overcast
4:02 AM 33.8 °F - 33.8 °F 100% 30.16 in 2.0 mi Calm Calm - N/A   Overcast
4:05 AM 33.8 °F - 33.8 °F 100% 30.16 in 0.8 mi Calm Calm - N/A   Mist
4:13 AM 33.8 °F - 33.8 °F 100% 30.16 in 0.2 mi Calm Calm - N/A Fog Fog
4:53 AM 33.1 °F - 33.1 °F 100% 30.17 in 0.2 mi Calm Calm - N/A Fog Fog
5:01 AM 33.8 °F 30.8 °F 33.8 °F 100% 30.16 in 0.5 mi NE 3.5 mph - N/A Fog Fog
5:14 AM 32.0 °F 28.7 °F 32.0 °F 100% 30.16 in 1.2 mi NE 3.5 mph - N/A   Overcast
5:23 AM 32.0 °F 28.7 °F 32.0 °F 100% 30.17 in 0.5 mi NNE 3.5 mph - N/A Fog Fog
5:30 AM 32.0 °F - 32.0 °F 100% 30.17 in 1.2 mi Calm Calm - N/A   Scattered Clouds
5:38 AM 32.0 °F - 32.0 °F 100% 30.17 in 3.0 mi Calm Calm - N/A   Partly Cloudy
5:53 AM 30.9 °F - 30.9 °F 100% 30.19 in 4.0 mi Calm Calm - N/A   Clear
6:12 AM 32.0 °F 28.7 °F 32.0 °F 100% 30.19 in 2.0 mi ESE 3.5 mph - N/A   Partly Cloudy
6:14 AM 32.0 °F - 32.0 °F 100% 30.19 in 1.0 mi Calm Calm - N/A   Mist
6:20 AM 30.2 °F - 30.2 °F 100% 30.19 in 0.2 mi Calm Calm - N/A Fog Light Freezing Fog
6:32 AM 32.0 °F - 30.2 °F 93% 30.19 in 1.0 mi Calm Calm - N/A   Mist
6:35 AM 32.0 °F - 30.2 °F 93% 30.19 in 2.5 mi Calm Calm - N/A   Partly Cloudy
6:42 AM 32.0 °F - 30.2 °F 93% 30.20 in 4.0 mi Calm Calm - N/A   Partly Cloudy
6:53 AM 30.0 °F 26.5 °F 30.0 °F 100% 30.21 in 5.0 mi NE 3.5 mph - N/A   Clear
6:59 AM 30.2 °F 26.7 °F 30.2 °F 100% 30.20 in 2.5 mi NE 3.5 mph - N/A   Partly Cloudy
7:01 AM 30.2 °F 26.7 °F 30.2 °F 100% 30.20 in 1.0 mi NE 3.5 mph - N/A   Mist
7:05 AM 30.2 °F 26.7 °F 30.2 °F 100% 30.20 in 4.0 mi NNE 3.5 mph - N/A Fog Patches of Fog
7:53 AM 30.9 °F 27.5 °F 30.9 °F 100% 30.22 in 1.0 mi NE 3.5 mph - N/A   Scattered Clouds
8:47 AM 30.2 °F 26.7 °F 30.2 °F 100% 30.23 in 1.5 mi ENE 3.5 mph - N/A   Scattered Clouds
8:53 AM 30.9 °F 27.5 °F 30.9 °F 100% 30.24 in 1.5 mi East 3.5 mph - N/A   Scattered Clouds
9:08 AM 30.2 °F - 30.2 °F 100% 30.24 in 3.0 mi Calm Calm - N/A   Partly Cloudy
9:53 AM 36.0 °F - 35.1 °F 97% 30.27 in 6.0 mi Calm Calm - N/A   Clear
10:53 AM 44.1 °F - 39.0 °F 82% 30.27 in 10.0 mi Calm Calm - N/A   Clear
11:53 AM 51.1 °F - 41.0 °F 68% 30.27 in 10.0 mi Calm Calm - N/A   Clear
12:53 PM 59.0 °F - 39.9 °F 49% 30.26 in 10.0 mi Calm Calm - N/A   Clear
1:53 PM 60.1 °F - 37.9 °F 44% 30.24 in 10.0 mi West 3.5 mph - N/A   Clear
2:53 PM 61.0 °F - 36.0 °F 39% 30.22 in 10.0 mi SSW 4.6 mph - N/A   Clear
3:53 PM 62.1 °F - 35.1 °F 37% 30.21 in 10.0 mi Calm Calm - N/A   Clear
4:53 PM 62.1 °F - 34.0 °F 35% 30.22 in 10.0 mi Calm Calm - N/A   Clear
5:53 PM 62.1 °F - 36.0 °F 38% 30.23 in 10.0 mi Calm Calm - N/A   Clear
6:53 PM 50.0 °F - 39.9 °F 68% 30.25 in 10.0 mi Calm Calm - N/A   Clear
7:53 PM 45.0 °F - 39.0 °F 80% 30.27 in 10.0 mi Calm Calm - N/A   Clear
8:53 PM 42.1 °F 40.2 °F 39.0 °F 89% 30.29 in 10.0 mi ENE 3.5 mph - N/A   Clear
9:53 PM 39.9 °F - 37.9 °F 93% 30.30 in 10.0 mi Calm Calm - N/A   Clear
10:53 PM 39.0 °F - 37.0 °F 93% 30.31 in 10.0 mi Calm Calm - N/A   Clear
11:53 PM 39.0 °F - 37.9 °F 96% 30.32 in 9.0 mi Calm Calm - N/A   Clear